Weather History for Taylorville, IL

Change the Weather History Date:

Wednesday, May 22, 2013

  Actual Average (KSPI) Record (KSPI)
Temperature  
Mean Temperature 68 °F 66 °F  
Max Temperature 75 °F 77 °F 95 °F (1925)
Min Temperature 59 °F 55 °F 34 °F (1883)
Degree Days  
Heating Degree Days 0 3  
Month to date heating degree days 106  
Since 1 July heating degree days 5451  
Cooling Degree Days 2 3  
Month to date cooling degree days 46  
Year to date cooling degree days 66  
Growing Degree Days 18 (Base 50)    
Moisture  
Dew Point 58 °F    
Average Humidity 77    
Maximum Humidity 100    
Minimum Humidity 50    
Precipitation  
Precipitation 0.00 in 0.15 in 1.38 in (1968)
Month to date precipitation 2.97  
Year to date precipitation 12.74  
Snow  
Snow 0.00 in 0.00 in 0.00 in ()
Month to date snowfall 0.0  
Since 1 July snowfall 20.9  
Snow Depth -    
Sea Level Pressure  
Sea Level Pressure 29.73 in    
Wind  
Wind Speed 11 mph (SW)    
Max Wind Speed 20 mph    
Max Gust Speed 25 mph    
Visibility 10 miles    
Events Rain    
T = Trace of Precipitation, MM = Missing Value Source: NWS Daily Summary

Daily Weather History Graph

Daily Weather History Graph

Search for Another Location

Airport:

Trip Planner

Search our weather history database for the weather conditions in past years. The results will help you decide how hot, cold, wet, or windy it might be!

Date:

Astronomy

May. 22, 2013 Rise Set
Actual Time 5:37 AM CDT 8:11 PM CDT
Civil Twilight 5:06 AM CDT 8:42 PM CDT
Nautical Twilight 4:27 AM CDT 9:20 PM CDT
Astronomical Twilight 3:44 AM CDT 10:04 PM CDT
Moon 5:33 PM CDT (5/22) 3:40 AM CDT (5/22)
Length of Visible Light 15h 35m
Length of Day
14h 33m
Waxing Gibbous, 91% of the Moon is Illuminated
May 22
Waxing Gibbous
May 24
Full
May 31
Last Quarter
Jun 8
New
Jun 16
First Quarter

Hourly Weather History & Observations

Time (CDT) Temp. Dew Point Humidity Pressure Visibility Wind Dir Wind Speed Gust Speed Precip Events Conditions
12:15 AM 66.2 °F 64.4 °F 94% 29.71 in 10.0 mi South 8.1 mph - N/A   Overcast
12:35 AM 66.2 °F 62.6 °F 88% 29.71 in 10.0 mi South 8.1 mph - N/A   Mostly Cloudy
12:55 AM 66.2 °F 62.6 °F 88% 29.70 in 10.0 mi South 8.1 mph - N/A   Mostly Cloudy
1:15 AM 64.4 °F 62.6 °F 94% 29.70 in 10.0 mi South 10.4 mph - N/A   Scattered Clouds
1:35 AM 64.4 °F 62.6 °F 94% 29.70 in 10.0 mi South 9.2 mph - N/A   Clear
1:55 AM 64.4 °F 62.6 °F 94% 29.71 in 10.0 mi SSW 12.7 mph - N/A   Mostly Cloudy
2:15 AM 64.4 °F 62.6 °F 94% 29.71 in 10.0 mi SSW 13.8 mph - N/A   Overcast
2:35 AM 64.4 °F 62.6 °F 94% 29.70 in 10.0 mi SSW 12.7 mph - N/A   Overcast
2:55 AM 64.4 °F 62.6 °F 94% 29.70 in 10.0 mi SSW 12.7 mph - N/A   Mostly Cloudy
3:15 AM 62.6 °F 60.8 °F 94% 29.69 in 10.0 mi South 9.2 mph - N/A   Scattered Clouds
3:35 AM 62.6 °F 60.8 °F 94% 29.69 in 10.0 mi South 12.7 mph - N/A   Scattered Clouds
3:55 AM 62.6 °F 60.8 °F 94% 29.69 in 10.0 mi South 11.5 mph - N/A   Mostly Cloudy
4:15 AM 62.6 °F 60.8 °F 94% 29.70 in 10.0 mi SSW 12.7 mph - N/A   Overcast
4:35 AM 62.6 °F 62.6 °F 100% 29.69 in 10.0 mi South 9.2 mph - N/A   Overcast
4:55 AM 62.6 °F 60.8 °F 94% 29.68 in 10.0 mi South 8.1 mph - N/A Rain Rain
5:15 AM 62.6 °F 60.8 °F 94% 29.69 in 10.0 mi South 10.4 mph - N/A   Light Drizzle
5:35 AM 62.6 °F 60.8 °F 94% 29.68 in 10.0 mi South 8.1 mph - N/A   Mostly Cloudy
5:55 AM 62.6 °F 60.8 °F 94% 29.67 in 10.0 mi SSE 6.9 mph - N/A   Scattered Clouds
6:15 AM 62.6 °F 60.8 °F 94% 29.67 in 10.0 mi South 5.8 mph - N/A   Clear
6:35 AM 62.6 °F 60.8 °F 94% 29.67 in 10.0 mi South 8.1 mph - N/A   Mostly Cloudy
6:55 AM 62.6 °F 60.8 °F 94% 29.68 in 10.0 mi South 12.7 mph 17.3 mph N/A   Overcast
7:15 AM 62.6 °F 60.8 °F 94% 29.69 in 10.0 mi SSW 16.1 mph - N/A   Overcast
7:35 AM 62.6 °F 60.8 °F 94% 29.69 in 10.0 mi SSW 16.1 mph - N/A   Overcast
7:55 AM 64.4 °F 60.8 °F 88% 29.70 in 10.0 mi SSW 16.1 mph - N/A   Mostly Cloudy
8:15 AM 64.4 °F 62.6 °F 94% 29.69 in 10.0 mi SSW 11.5 mph - N/A   Mostly Cloudy
8:35 AM 66.2 °F 62.6 °F 88% 29.70 in 10.0 mi SW 9.2 mph - N/A   Mostly Cloudy
8:55 AM 66.2 °F 62.6 °F 88% 29.70 in 10.0 mi SW 11.5 mph - N/A   Scattered Clouds
9:15 AM 66.2 °F 62.6 °F 88% 29.71 in 10.0 mi SW 15.0 mph - N/A   Scattered Clouds
9:35 AM 66.2 °F 60.8 °F 83% 29.71 in 10.0 mi WSW 11.5 mph - N/A   Mostly Cloudy
9:55 AM 64.4 °F 60.8 °F 88% 29.71 in 10.0 mi WSW 16.1 mph 21.9 mph N/A   Mostly Cloudy
10:15 AM 68.0 °F 62.6 °F 83% 29.72 in 10.0 mi WSW 12.7 mph - N/A   Mostly Cloudy
10:35 AM 69.8 °F 60.8 °F 73% 29.72 in 10.0 mi West 11.5 mph - N/A   Scattered Clouds
10:55 AM 69.8 °F 55.4 °F 60% 29.73 in 10.0 mi West 11.5 mph 16.1 mph N/A   Clear
11:15 AM 69.8 °F 55.4 °F 60% 29.73 in 10.0 mi West 13.8 mph 18.4 mph N/A   Scattered Clouds
11:35 AM 71.6 °F 53.6 °F 53% 29.74 in 10.0 mi West 13.8 mph - N/A   Scattered Clouds
11:55 AM 73.4 °F 55.4 °F 53% 29.74 in 10.0 mi SW 12.7 mph - N/A   Scattered Clouds
12:15 PM 73.4 °F 55.4 °F 53% 29.74 in 10.0 mi SW 12.7 mph - N/A   Clear
12:35 PM 73.4 °F 55.4 °F 53% 29.74 in 10.0 mi SW 12.7 mph 20.7 mph N/A   Scattered Clouds
12:55 PM 73.4 °F 55.4 °F 53% 29.73 in 10.0 mi SW 13.8 mph 20.7 mph N/A   Clear
1:15 PM 75.2 °F 55.4 °F 50% 29.73 in 10.0 mi SW 13.8 mph 23.0 mph N/A   Clear
1:35 PM 73.4 °F 55.4 °F 53% 29.73 in 10.0 mi SW 13.8 mph - N/A   Scattered Clouds
1:55 PM 69.8 °F 53.6 °F 56% 29.74 in 10.0 mi WSW 13.8 mph - N/A   Mostly Cloudy
2:15 PM 71.6 °F 53.6 °F 53% 29.74 in 10.0 mi SW 12.7 mph 19.6 mph N/A   Mostly Cloudy
2:35 PM 69.8 °F 55.4 °F 60% 29.74 in 10.0 mi WSW 12.7 mph - N/A   Mostly Cloudy
2:55 PM 66.2 °F 55.4 °F 68% 29.75 in 10.0 mi WSW 13.8 mph 19.6 mph N/A Rain Light Rain
3:15 PM 66.2 °F 57.2 °F 73% 29.74 in 10.0 mi WSW 10.4 mph - N/A   Mostly Cloudy
3:35 PM 69.8 °F 57.2 °F 64% 29.74 in 10.0 mi WSW 12.7 mph 17.3 mph N/A   Scattered Clouds
3:55 PM 69.8 °F 55.4 °F 60% 29.73 in 10.0 mi WSW 12.7 mph 21.9 mph N/A   Scattered Clouds
4:15 PM 69.8 °F 55.4 °F 60% 29.73 in 10.0 mi SW 13.8 mph 25.3 mph N/A   Scattered Clouds
4:35 PM 71.6 °F 55.4 °F 57% 29.73 in 10.0 mi SW 13.8 mph - N/A   Scattered Clouds
4:55 PM 71.6 °F 57.2 °F 60% 29.73 in 10.0 mi WSW 15.0 mph 20.7 mph N/A   Scattered Clouds
5:15 PM 69.8 °F 57.2 °F 64% 29.73 in 10.0 mi WSW 19.6 mph 23.0 mph N/A   Scattered Clouds
5:35 PM 71.6 °F 55.4 °F 57% 29.74 in 10.0 mi West 17.3 mph 21.9 mph N/A   Mostly Cloudy
5:55 PM 69.8 °F 55.4 °F 60% 29.74 in 10.0 mi West 17.3 mph 25.3 mph N/A   Scattered Clouds
6:15 PM 69.8 °F 55.4 °F 60% 29.74 in 10.0 mi West 17.3 mph 21.9 mph N/A   Clear
6:35 PM 69.8 °F 55.4 °F 60% 29.75 in 10.0 mi WSW 16.1 mph 23.0 mph N/A   Scattered Clouds
6:55 PM 66.2 °F 55.4 °F 68% 29.76 in 10.0 mi West 15.0 mph 20.7 mph N/A   Scattered Clouds
7:15 PM 66.2 °F 55.4 °F 68% 29.77 in 10.0 mi West 17.3 mph 20.7 mph N/A   Overcast
7:35 PM 64.4 °F 55.4 °F 73% 29.78 in 10.0 mi West 13.8 mph - N/A   Overcast
7:55 PM 64.4 °F 53.6 °F 68% 29.78 in 10.0 mi West 13.8 mph 21.9 mph N/A   Overcast
8:15 PM 64.4 °F 53.6 °F 68% 29.79 in 10.0 mi West 9.2 mph - N/A   Overcast
8:35 PM 62.6 °F 53.6 °F 72% 29.79 in 10.0 mi West 11.5 mph - N/A   Overcast
8:55 PM 62.6 °F 53.6 °F 72% 29.80 in 10.0 mi West 8.1 mph - N/A   Overcast
9:15 PM 62.6 °F 53.6 °F 72% 29.81 in 10.0 mi West 9.2 mph - N/A   Mostly Cloudy
9:35 PM 60.8 °F 53.6 °F 77% 29.81 in 10.0 mi West 10.4 mph - N/A   Mostly Cloudy
9:55 PM 60.8 °F 53.6 °F 77% 29.82 in 10.0 mi West 6.9 mph - N/A   Mostly Cloudy
10:15 PM 60.8 °F 53.6 °F 77% 29.82 in 10.0 mi West 8.1 mph - N/A   Mostly Cloudy
10:35 PM 60.8 °F 53.6 °F 77% 29.83 in 10.0 mi West 10.4 mph - N/A   Overcast
10:55 PM 60.8 °F 53.6 °F 77% 29.84 in 10.0 mi West 10.4 mph - N/A   Overcast
11:15 PM 60.8 °F 53.6 °F 77% 29.84 in 10.0 mi West 10.4 mph - N/A   Overcast
11:35 PM 60.8 °F 53.6 °F 77% 29.84 in 10.0 mi West 9.2 mph - N/A   Scattered Clouds
11:55 PM 59.0 °F 53.6 °F 82% 29.84 in 10.0 mi West 6.9 mph - N/A   Clear